Location: Demmingen
(48.6757°N, 10.4375°E)
Time: 02:16:38
(UTC+00:00)

Cosmos 1782 Rocket - Pass Details

Date: 23 May 2024
Orbit: 603 x 629 km, 82.5° (Epoch: 13 June)

Event Time Altitude Azimuth Distance (km) Brightness Sun altitude
Rises 01:50:40 0° 342° (NNW) 2,898 7.5 -12.5°
Reaches altitude 10° 01:53:04 10° 333° (NNW) 1,983 6.5 -12.2°
Maximum altitude 01:56:59 32° 270° (W) 1,048 4.4 -11.8°
Enters shadow 01:59:41 17° 216° (SW) 1,561 5.0 -11.6°
